Baku, Azerbaijan

2:37 PM +04 on August 21, 2018 (GMT +0400)
Bina

Weather History for UBBB - February, 2018

Change the Weather History Date:

Tuesday, February 27, 2018

  Actual Average Record
Temperature  
Mean Temperature 44 °F -  
Max Temperature 48 °F - - ()
Min Temperature 40 °F - - ()
Degree Days  
Heating Degree Days 21    
Moisture  
Dew Point 39 °F    
Average Humidity 84    
Maximum Humidity 93    
Minimum Humidity 62    
Precipitation  
Precipitation 0.00 in - - ()
Sea Level Pressure  
Sea Level Pressure 30.03 in    
Wind  
Wind Speed 12 mph ()    
Max Wind Speed 25 mph    
Max Gust Speed -    
Visibility 6.1 miles    
Events Rain    
T = Trace of Precipitation, MM = Missing Value Source: Averaged Metar Reports

Daily Weather History Graph

Daily Weather History Graph

Search for Another Location

Airport or City:

Astronomy

Feb. 27, 2018 Rise Set
Actual Time 7:16 AM +04 6:28 PM +04
Civil Twilight 6:49 AM +04 6:56 PM +04
Nautical Twilight 6:17 AM +04 7:27 PM +04
Astronomical Twilight 5:46 AM +04 7:59 PM +04
Moon 3:32 PM +04 (2/27) 5:19 AM +04 (2/27)
Length of Visible Light 12h 06m
Length of Day
11h 11m
Waxing Gibbous, 90% of the Moon is Illuminated
Feb 27
Waxing Gibbous
Mar 2
Full
Mar 9
Last Quarter
Mar 17
New
Mar 24
First Quarter

Hourly Weather History & Observations

Time (+04) Temp. Windchill Dew Point Humidity Pressure Visibility Wind Dir Wind Speed Gust Speed Precip Events Conditions
12:00 AM 42.8 °F 34.8 °F 41.0 °F 93% 30.04 in 6.2 mi NNW 17.3 mph - N/A   Mostly Cloudy
12:30 AM 42.8 °F 35.4 °F 41.0 °F 93% 30.04 in 6.2 mi NNW 15.0 mph - N/A   Mostly Cloudy
1:00 AM 42 °F - 39 °F 84% 30.06 in 6 mi NW 24.6 mph - -   Overcast
1:00 AM 42.8 °F 34.3 °F 39.2 °F 87% 30.04 in 6.2 mi NNW 19.6 mph - N/A   Mostly Cloudy
1:30 AM 41.0 °F 31.9 °F 39.2 °F 93% 30.04 in 6.2 mi NNW 19.6 mph - N/A   Overcast
2:00 AM 41.0 °F 32.5 °F 39.2 °F 93% 30.04 in 6.2 mi NNW 17.3 mph - N/A   Overcast
2:30 AM 41.0 °F 32.8 °F 39.2 °F 93% 30.06 in 6.2 mi NNW 16.1 mph - N/A   Overcast
3:00 AM 41.0 °F 32.8 °F 39.2 °F 93% 30.06 in 6.2 mi NNW 16.1 mph - N/A   Overcast
3:30 AM 41.0 °F 32.5 °F 39.2 °F 93% 30.06 in 6.2 mi NNW 17.3 mph - N/A   Overcast
4:00 AM 41 °F - 37 °F 82% 30.06 in 6 mi WNW 15.7 mph - -   Overcast
4:00 AM 41.0 °F 32.5 °F 37.4 °F 87% 30.04 in 6.2 mi NNW 17.3 mph - N/A   Overcast
4:30 AM 41.0 °F 32.8 °F 37.4 °F 87% 30.06 in 6.2 mi NNW 16.1 mph - N/A   Overcast
5:00 AM 41.0 °F 33.5 °F 37.4 °F 87% 30.06 in 6.2 mi NNW 13.8 mph - N/A   Overcast
5:30 AM 41.0 °F 33.1 °F 37.4 °F 87% 30.06 in 6.2 mi NNW 15.0 mph - N/A   Overcast
6:00 AM 41.0 °F 33.5 °F 37.4 °F 87% 30.06 in 6.2 mi NNW 13.8 mph - N/A   Overcast
6:30 AM 41.0 °F 33.5 °F 37.4 °F 87% 30.06 in 6.2 mi NNW 13.8 mph - N/A   Overcast
7:00 AM 41 °F - 37 °F 79% 30.06 in 6 mi WNW 11.2 mph - -   Overcast
7:00 AM 41.0 °F 33.9 °F 37.4 °F 87% 30.06 in 6.2 mi NNW 12.7 mph - N/A   Overcast
7:30 AM 41.0 °F 34.3 °F 37.4 °F 87% 30.06 in 6.2 mi NNW 11.5 mph - N/A   Overcast
8:00 AM 41.0 °F 35.2 °F 37.4 °F 87% 30.06 in 6.2 mi NNW 9.2 mph - N/A   Overcast
8:30 AM 41.0 °F 36.4 °F 37.4 °F 87% 30.06 in 6.2 mi NNW 6.9 mph - N/A   Overcast
9:00 AM 41.0 °F 36.4 °F 37.4 °F 87% 30.06 in 6.2 mi NW 6.9 mph - N/A   Overcast
9:30 AM 41.0 °F 37.1 °F 37.4 °F 87% 30.06 in 6.2 mi WNW 5.8 mph - N/A   Overcast
10:00 AM 42 °F - 38 °F 79% 30.07 in 6 mi Calm Calm - -   Overcast
10:00 AM 42.8 °F 40.1 °F 39.2 °F 87% 30.06 in 6.2 mi NW 4.6 mph - N/A   Overcast
10:30 AM 42.8 °F 41.1 °F 37.4 °F 81% 30.06 in 6.2 mi West 3.5 mph - N/A   Overcast
11:00 AM 42.8 °F - 39.2 °F 87% 30.06 in 6.2 mi WSW 2.3 mph - N/A   Overcast
11:30 AM 42.8 °F - 39.2 °F 87% 30.06 in 6.2 mi Variable 1.2 mph - N/A   Overcast
12:00 PM 44.6 °F - 39.2 °F 81% 30.06 in 6.2 mi Variable 2.3 mph - N/A   Overcast
12:30 PM 46.4 °F 44.3 °F 39.2 °F 76% 30.04 in 6.2 mi SE 4.6 mph - N/A   Mostly Cloudy
1:00 PM 46 °F - 38 °F 65% 30.03 in 6 mi ESE 6.7 mph - -   Overcast
1:00 PM 46.4 °F 43.5 °F 39.2 °F 76% 30.04 in 6.2 mi ESE 5.8 mph - N/A   Mostly Cloudy
1:30 PM 46.4 °F 43.5 °F 39.2 °F 76% 30.01 in 6.2 mi SE 5.8 mph - N/A   Mostly Cloudy
2:00 PM 46.4 °F 41.9 °F 39.2 °F 76% 30.01 in 6.2 mi SSE 9.2 mph - N/A   Mostly Cloudy
2:30 PM 46.4 °F 41.9 °F 37.4 °F 71% 30.01 in 6.2 mi SE 9.2 mph - N/A   Mostly Cloudy
3:00 PM 46.4 °F 41.1 °F 37.4 °F 71% 29.98 in - SE 11.5 mph - N/A   Clear
3:30 PM 46.4 °F 40.7 °F 39.2 °F 76% 29.98 in - SSE 12.7 mph - N/A   Clear
4:00 PM 47 °F - 38 °F 62% 29.99 in 6 mi SE 11.2 mph - -   Mostly Cloudy
4:00 PM 46.4 °F 40.4 °F 39.2 °F 76% 29.98 in - SSE 13.8 mph - N/A   Clear
4:30 PM 46.4 °F 40.1 °F 39.2 °F 76% 29.98 in 6.2 mi SSE 15.0 mph - N/A   Mostly Cloudy
5:00 PM 44.6 °F 37.8 °F 39.2 °F 81% 29.98 in 6.2 mi SSE 15.0 mph - N/A   Mostly Cloudy
5:30 PM 44.6 °F 38.1 °F 39.2 °F 81% 29.98 in 6.2 mi South 13.8 mph - N/A   Mostly Cloudy
6:00 PM 44.6 °F 39.2 °F 41.0 °F 87% 29.98 in 6.2 mi SSE 10.4 mph - N/A   Overcast
7:00 PM 44 °F - 39 °F 78% 30.00 in 6 mi SE 11.2 mph - -   Mostly Cloudy
7:00 PM 44.6 °F 40.2 °F 41.0 °F 87% 30.01 in 6.2 mi South 8.1 mph - N/A   Overcast
7:30 PM 44.6 °F 40.7 °F 41.0 °F 87% 30.01 in 6.2 mi South 6.9 mph - N/A   Overcast
8:00 PM 44.6 °F 39.7 °F 41.0 °F 87% 30.01 in 6.2 mi South 9.2 mph - N/A Rain Light Rain
8:30 PM 44.6 °F 39.2 °F 41.0 °F 87% 30.01 in 6.2 mi South 10.4 mph - N/A Rain Light Rain
9:00 PM 44.6 °F 40.7 °F 42.8 °F 93% 30.01 in 3.1 mi SSE 6.9 mph - N/A Rain Light Rain
9:30 PM 44.6 °F 42.2 °F 42.8 °F 93% 30.01 in 5.0 mi SSW 4.6 mph - N/A Rain Light Rain
10:00 PM 45 °F - 43 °F 88% 30.00 in 6 mi SSE 8.9 mph - -   Overcast
10:00 PM 46.4 °F 42.4 °F 42.8 °F 87% 30.01 in 4.3 mi South 8.1 mph - N/A Rain Light Rain
10:30 PM 44.6 °F 39.7 °F 42.8 °F 93% 30.01 in 6.2 mi South 9.2 mph - N/A   Overcast
11:00 PM 46.4 °F 42.4 °F 44.6 °F 93% 30.01 in 6.2 mi South 8.1 mph - N/A   Overcast
11:30 PM 46.4 °F 41.9 °F 44.6 °F 93% 29.98 in 6.2 mi South 9.2 mph - N/A   Overcast